Location: Orange
(33.2833°S, 149.1000°E)
Time: 19:10:27
(UTC+11:00)

Hubble Space Telescope - Pass Details

Date: 30 September 2022
Orbit: 530 x 534 km, 28.5° (Epoch: 04 December)

Event Time Altitude Azimuth Distance (km) Brightness Sun altitude
Exits shadow 04:27:51 18° 336° (NNW) 1,343 2.4 -16.3°
Maximum altitude 04:29:45 25° 16° (NNE) 1,094 2.3 -15.9°
Drops below altitude 10° 04:33:12 10° 72° (ENE) 1,789 4.3 -15.2°
Sets 04:35:44 0° 85° (E) 2,683 5.8 -14.7°
